sat.trackr.live / text

‹ back to catalog

PRAETORIAN SDA_612

NORAD 65575 · 2025-203L

PAYLOAD ACTIVE UNKNOWN

§ Identity

Operator
Country
US
Launch date
2025-09-10
Launch site
AFWTR
Launch vehicle
Mass (kg)
RCS (m²)

Purposes: military

External: N2YO · Heavens-Above · Gunter

§ Orbital elements

Epoch: 2026-09-19T07:38:54.048768Z

Period
103.97 min
Inclination
81.2993°
Eccentricity
0.0008228
Mean motion
13.85039325 rev/d
Perigee alt
940.0 km
Apogee alt
952.1 km
Semi-major
7,324.2 km
B*
8.9094e-5
RAAN
283.2213°
Arg perigee
300.1728°
Mean anomaly
59.8614°
Rev number
5,174

§ Raw data

PRAETORIAN SDA_6121 65575U 25203L   26262.31868112  .00000113  00000+0  89094-4 0  99962 65575  81.2993 283.2213 0008228 300.1728  59.8614 13.85039325 51743

JSON: /api/v1/satellites/65575 · /tle

For live sub-satellite position, see the globe view (requires WebGL).

§ Visibility from observer

Set your observer location to see the next 7 days of passes ≥ 10°. The values pass through the URL so the page stays shareable.

No JS? Fill the form by hand. The geolocation button needs JavaScript.